Lid_Strength_Index
3 3 3 3 4 4 4 5 5 5 5 5 5 5 5 5 5 4 5 5 5 5 5 5 5 4 6 11 11 7 3 4 2 4 6 8 10 11 14 13 13 15 13 11 11 11 11
4 4 4 5 5 5 6 6 6 6 6 5 6 6 6 6 6 5 5 5 5 5 5 5 5 4 8 14 8 7 7 6 3 5 6 8 8 10 12 12 13 12 11 11 11 11 12
5 5 5 5 6 6 6 6 6 6 6 6 6 6 6 6 6 6 5 5 5 5 6 5 5 7 10 12 7 7 7 9 8 5 6 5 7 8 10 13 11 11 13 12 12 11 12
5 5 5 5 5 6 6 6 6 6 6 6 6 6 6 6 6 6 5 5 5 5 5 5 5 8 12 7 6 7 7 8 7 7 6 5 6 9 12 11 11 14 13 15 13 12 11
6 6 5 6 6 6 6 6 6 6 6 6 6 6 6 6 6 6 5 5 5 5 5 5 8 8 13 6 7 6 6 8 7 7 5 4 8 10 11 13 15 15 18 17 15 12 12
5 5 6 6 6 6 6 6 6 6 6 6 6 6 6 5 5 5 5 5 5 6 5 5 6 10 9 10 7 5 5 6 7 7 7 7 10 12 13 14 18 17 18 16 16 13 13
6 6 6 6 6 6 6 6 6 6 6 6 6 5 5 5 5 5 7 8 13 12 8 10 9 9 8 6 5 6 5 6 7 7 10 9 12 15 13 13 13 14 15 16 15 12 12
6 6 6 6 6 7 6 6 6 6 5 5 5 5 5 5 5 5 7 11 11 10 14 9 9 8 7 6 9 7 5 8 9 11 9 11 13 11 11 12 13 13 15 16 14 12 13
6 7 7 6 6 6 6 6 5 5 5 5 5 5 5 5 5 8 11 11 8 9 14 12 9 9 7 6 8 8 6 8 9 10 11 12 11 9 11 12 13 14 15 16 15 11 12
7 7 7 7 6 6 6 6 6 6 6 5 5 5 5 5 9 11 11 9 8 7 14 12 9 7 5 5 8 4 4 7 9 11 10 11 8 10 11 12 12 15 12 13 13 13 17
7 7 8 7 7 6 6 6 6 6 5 5 5 5 5 6 9 10 9 7 5 7 19 9 7 3 4 7 7 6 4 6 10 10 9 12 10 10 12 12 11 13 11 12 12 14 16
8 7 8 8 7 7 6 6 6 5 5 5 5 5 5 8 8 6 4 6 6 14 18 10 8 8 9 8 8 6 6 5 6 9 9 10 7 8 9 9 10 10 11 12 13 15 18
8 8 8 8 8 7 6 6 6 5 5 5 5 5 6 6 8 6 6 7 14 18 9 10 10 8 9 10 10 9 10 11 13 15 15 11 10 8 7 10 10 10 13 18 19 20 19
8 8 8 8 8 7 6 6 6 6 6 5 5 5 6 5 4 4 5 10 17 13 12 8 9 9 11 9 10 10 12 13 10 12 15 16 17 11 8 10 11 12 13 17 21 20 19
8 8 8 8 7 6 6 6 6 6 6 5 5 8 7 5 2 3 7 15 16 12 10 11 10 12 12 10 10 11 12 13 11 10 16 16 15 9 8 8 8 11 13 12 15 15 18
8 8 8 8 7 6 6 5 5 5 5 5 9 9 8 3 2 3 10 13 11 8 8 10 14 11 15 12 13 12 12 10 11 9 9 13 17 10 9 8 8 9 9 14 14 20 21
8 8 8 7 7 6 5 5 5 5 5 5 10 10 7 4 1 6 13 12 10 7 8 11 13 13 13 13 12 13 13 10 9 10 9 11 14 13 10 11 12 12 12 12 13 15 19
8 8 8 7 7 6 5 5 5 5 5 6 8 14 6 3 9 9 11 10 8 9 7 9 9 11 13 12 13 14 13 11 8 9 12 10 13 17 14 9 8 10 11 11 16 18 15
8 8 8 8 7 6 5 5 5 5 4 6 10 9 4 3 12 11 9 10 9 9 9 10 11 10 10 12 14 12 12 8 8 9 11 11 14 18 17 13 11 12 11 11 12 14 17
8 8 8 7 6 5 5 5 4 4 2 4 8 11 8 7 8 9 11 11 11 8 9 8 9 9 11 12 11 13 12 10 8 9 8 9 13 16 19 16 13 14 12 11 12 17 16
8 7 7 7 6 5 5 4 4 3 2 6 7 9 8 12 10 10 9 11 11 12 9 8 10 10 12 14 12 13 11 10 9 8 9 10 15 14 13 12 11 12 12 11 13 12 15
8 7 7 6 6 5 5 4 3 2 2 7 9 8 7 8 9 10 10 10 11 10 10 11 12 10 10 13 12 13 12 11 12 10 11 10 15 13 15 12 11 14 12 11 11 12 12
8 7 6 6 5 5 4 4 3 2 2 5 4 3 6 8 10 11 11 11 11 10 9 8 9 10 11 10 8 8 8 8 9 11 12 12 14 15 18 13 14 17 13 13 13 12 12
8 7 6 5 5 4 4 3 2 1 1 3 3 4 7 11 10 11 10 10 11 10 11 9 8 10 9 7 6 7 8 9 9 10 9 13 14 14 17 15 21 14 10 10 12 11 11
7 6 6 5 4 4 3 2 2 0 -1 4 3 4 7 11 9 10 10 10 9 9 10 10 8 7 6 8 11 13 13 13 11 10 10 10 13 16 18 18 15 13 11 12 12 13 10
6 6 6 5 4 4 2 2 1 -0 -1 2 2 2 6 10 11 9 11 9 11 10 11 10 7 6 8 11 12 17 18 15 15 14 10 10 11 15 16 19 21 14 10 8 8 16 9
7 6 5 5 4 3 2 1 0 -0 -1 -0 1 2 5 9 8 8 11 10 8 10 12 11 10 10 9 14 14 16 16 12 16 16 16 15 14 16 16 18 15 10 8 7 16 14 8
6 6 5 4 4 2 1 0 0 -0 -1 -0 2 2 5 8 8 7 7 8 9 10 13 11 11 11 13 14 14 14 15 14 14 13 14 15 16 16 16 17 19 8 9 12 11 8 8
7 6 5 4 3 2 1 0 -0 -0 -1 -0 4 4 3 6 7 5 5 5 6 7 9 9 10 10 11 13 14 14 14 13 13 17 10 16 13 15 14 14 9 8 10 9 8 10 10